User: anonymous   Login
Location: Caltech
(34.1382°N, 118.1253°W)
Time: 13:38:21
(UTC-07:00)
Language:

CZ-2C R/B - Orbit

View from above orbital plane
View from above orbital plane
View from above satellite
View from above satellite

Ground track
Ground track

The orbit data is extracted from the following two-line orbital elements,

1 36089U 09061B   16180.56392637  .00000022  00000-0  16610-4 0  9991
2 36089  98.0509 192.1528 0083265  55.3732  54.9274 14.49583195350475
Epoch (UTC): 28 June 2016 13:32:03
Eccentricity: 0.0083265
inclination: 98.0509°
perigee height: 668 km
apogee height: 786 km
right ascension of ascending node: 192.1528°
argument of perigee: 55.3732°
revolutions per day: 14.49583195
mean anomaly at epoch: 54.9274°
orbit number at epoch: 35047

The dashed part of the orbit path shows where the satellite is in the earth's shadow,  

DLR